Weather History for Santa Monica, CA

Change the Weather History Date:

Tuesday, November 13, 2012

  Actual Average Record
Temperature  
Mean Temperature 65 °F -  
Max Temperature 80 °F 72 °F 94 °F (1949)
Min Temperature 50 °F 52 °F 33 °F (1938)
Growing Degree Days 15 (Base 50)    
Moisture  
Dew Point 19 °F    
Average Humidity 18    
Maximum Humidity 43    
Minimum Humidity 7    
Precipitation  
Precipitation 0.00 in - - ()
Sea Level Pressure  
Sea Level Pressure 30.06 in    
Wind  
Wind Speed 4 mph (NNE)    
Max Wind Speed 8 mph    
Max Gust Speed -    
Visibility 10 miles    
Events      
Averages and records for this station are not official NWS values.
T = Trace of Precipitation, MM = Missing Value Source: NWS Daily Summary

Daily Weather History Graph

Daily Weather History Graph

Search for Another Location

Airport:

Trip Planner

Search our weather history database for the weather conditions in past years. The results will help you decide how hot, cold, wet, or windy it might be!

Date:

Astronomy

Nov. 13, 2012 Rise Set
Actual Time 6:24 AM PST 4:50 PM PST
Civil Twilight 5:58 AM PST 5:17 PM PST
Nautical Twilight 5:28 AM PST 5:47 PM PST
Astronomical Twilight 4:58 AM PST 6:17 PM PST
Moon 6:08 AM PST (11/13) 4:49 PM PST (11/13)
Length of Visible Light 11h 19m
Length of Day
10h 26m
Waning Crescent, 0% of the Moon is Illuminated
Nov 13
Waning Crescent
Nov 13
New
Nov 20
First Quarter
Nov 28
Full
Dec 6
Last Quarter

Hourly Weather History & Observations

Time (PST) Temp. Dew Point Humidity Pressure Visibility Wind Dir Wind Speed Gust Speed Precip Events Conditions
12:51 AM 53.1 °F 21.0 °F 29% 30.12 in 10.0 mi East 4.6 mph - N/A   Clear
1:51 AM 52.0 °F 19.9 °F 28% 30.12 in 10.0 mi NNE 4.6 mph - N/A   Clear
2:51 AM 50.0 °F 18.0 °F 28% 30.12 in 10.0 mi NE 3.5 mph - N/A   Clear
3:51 AM 53.1 °F 16.0 °F 23% 30.10 in 10.0 mi NNE 4.6 mph - N/A   Clear
4:51 AM 53.1 °F 18.0 °F 25% 30.09 in 10.0 mi NE 4.6 mph - N/A   Clear
5:51 AM 55.9 °F 12.0 °F 18% 30.09 in 10.0 mi ENE 4.6 mph - N/A   Clear
6:51 AM 59.0 °F 10.0 °F 14% 30.10 in 10.0 mi NE 3.5 mph - N/A   Clear
7:51 AM 64.9 °F 18.0 °F 16% 30.12 in 10.0 mi Calm Calm - N/A   Clear
8:51 AM 71.1 °F 15.1 °F 12% 30.11 in 10.0 mi NNE 8.1 mph - N/A   Clear
9:51 AM 78.1 °F 10.0 °F 7% 30.09 in 10.0 mi NE 3.5 mph - N/A   Clear
10:51 AM 80.1 °F 9.0 °F 7% 30.07 in 10.0 mi ENE 4.6 mph - N/A   Clear
11:51 AM 73.0 °F 23.0 °F 15% 30.06 in 10.0 mi WSW 6.9 mph - N/A   Clear
12:51 PM 73.0 °F 27.0 °F 18% 30.04 in 10.0 mi WSW 4.6 mph - N/A   Clear
1:51 PM 72.0 °F 33.1 °F 24% 30.01 in 10.0 mi SW 4.6 mph - N/A   Clear
2:51 PM 73.9 °F 21.9 °F 14% 30.01 in 10.0 mi WSW 5.8 mph - N/A   Clear
3:51 PM 73.0 °F 23.0 °F 15% 30.01 in 10.0 mi SW 3.5 mph - N/A   Clear
4:51 PM 70.0 °F 27.0 °F 20% 30.01 in 10.0 mi Calm Calm - N/A   Clear
5:51 PM 64.0 °F 36.0 °F 35% 30.01 in 10.0 mi Calm Calm - N/A   Clear
6:51 PM 62.1 °F 39.0 °F 43% 30.00 in 10.0 mi Calm Calm - N/A   Clear
7:51 PM 72.0 °F 10.0 °F 9% 30.00 in 10.0 mi North 5.8 mph - N/A   Clear
8:51 PM 71.1 °F 9.0 °F 9% 30.01 in 10.0 mi North 4.6 mph - N/A   Clear
9:51 PM 66.9 °F 10.9 °F 11% 30.02 in 10.0 mi East 3.5 mph - N/A   Clear
10:51 PM 64.9 °F 10.9 °F 12% 30.02 in 10.0 mi ENE 3.5 mph - N/A   Clear
11:51 PM 66.9 °F 9.0 °F 10% 30.03 in 10.0 mi NNE 6.9 mph - N/A   Clear